EW9318 Weather Reports


time (UTC)temp
C
wind
direction
speed
KPH
gust
KPH
rain 1hr
cm
rain 24hr
cm
rain mn
cm
humidity
%
barometer
mb
20260905214517 22 68 11.3 20.9 0.00 0.00 0.00 86 1013.3
20260905214017 22 74 9.7 14.5 0.00 0.00 0.00 86 1013.2
20260905213518 22 79 8.0 14.5 0.00 0.00 0.00 87 1013.2
20260905213017 22 75 8.0 16.1 0.00 0.00 0.00 87 1013.2
20260905212518 22 86 6.4 16.1 0.00 0.00 0.00 87 1013.2
20260905212017 22 91 9.7 14.5 0.00 0.00 0.00 86 1013.2
20260905211516 22 63 8.0 14.5 0.00 0.00 0.00 87 1013.2
20260905211016 22 69 8.0 17.7 0.00 0.00 0.00 86 1013.2
20260905210516 22 67 9.7 17.7 0.00 0.00 0.00 86 1013.2
20260905210017 22 78 8.0 16.1 0.00 0.00 0.00 87 1013.2
20260905205539 22 69 8.0 16.1 0.00 0.00 0.00 87 1013.2
20260905205016 22 85 11.3 17.7 0.00 0.00 0.00 87 1013.3
20260905204518 22 72 11.3 17.7 0.00 0.00 0.00 87 1013.4
20260905204016 21 83 9.7 17.7 0.00 0.03 0.00 87 1013.4
20260905203516 21 78 11.3 19.3 0.00 0.03 0.00 87 1013.4
20260905203016 21 72 11.3 19.3 0.00 0.03 0.00 87 1013.5
20260905202516 21 70 11.3 20.9 0.00 0.03 0.00 88 1013.5
20260905202017 21 67 12.9 20.9 0.00 0.03 0.00 87 1013.6
20260905201516 21 70 12.9 17.7 0.00 0.03 0.00 87 1013.6
20260905201017 21 64 9.7 17.7 0.00 0.05 0.00 88 1013.6
20260905200537 21 68 8.0 17.7 0.00 0.05 0.00 88 1013.6
20260905200017 21 63 9.7 17.7 0.00 0.05 0.00 89 1013.6
20260905195536 21 65 8.0 16.1 0.00 0.05 0.00 89 1013.6
20260905195056 21 71 8.0 17.7 0.00 0.05 0.00 89 1013.6
20260905194516 21 64 8.0 19.3 0.00 0.05 0.00 89 1013.6
20260905194016 21 62 9.7 19.3 0.00 0.08 0.00 88 1013.6
20260905193516 21 50 8.0 19.3 0.00 0.08 0.00 88 1013.6
20260905193016 21 56 8.0 16.1 0.00 0.08 0.00 89 1013.5
20260905192536 21 56 6.4 16.1 0.00 0.08 0.00 89 1013.7
20260905192017 21 65 11.3 17.7 0.00 0.10 0.00 89 1013.7
20260905191517 21 74 8.0 17.7 0.00 0.10 0.00 89 1013.8
20260905191016 21 48 6.4 14.5 0.00 0.10 0.00 89 1013.7
20260905190516 21 52 4.8 17.7 0.00 0.13 0.00 90 1013.6
20260905190016 21 54 9.7 17.7 0.00 0.13 0.00 89 1013.7
20260905185517 21 50 8.0 16.1 0.00 0.13 0.00 89 1013.8
20260905185016 21 63 6.4 16.1 0.00 0.13 0.00 89 1013.8
20260905184517 21 46 6.4 17.7 0.00 0.15 0.00 90 1013.8
20260905184016 21 68 8.0 17.7 0.00 0.15 0.00 90 1013.7
20260905183537 21 68 6.4 14.5 0.00 0.18 0.00 90 1013.7
20260905183016 21 67 8.0 14.5 0.00 0.18 0.00 90 1013.7
20260905182516 21 50 6.4 16.1 0.00 0.18 0.00 90 1013.6
20260905182016 21 57 8.0 16.1 0.00 0.20 0.00 90 1013.7
20260905181516 21 66 8.0 16.1 0.00 0.20 0.00 90 1013.7
20260905181016 21 55 4.8 14.5 0.00 0.20 0.00 91 1013.6
20260905180536 21 43 8.0 14.5 0.00 0.23 0.00 91 1013.7
20260905180017 21 45 4.8 11.3 0.00 0.23 0.00 92 1013.8
20260905175536 21 39 4.8 12.9 0.00 0.23 0.00 92 1013.8
20260905175036 21 35 6.4 12.9 0.00 0.25 0.00 92 1013.8
20260905174556 21 67 6.4 11.3 0.00 0.25 0.00 93 1013.8
20260905174016 21 55 6.4 14.5 0.00 0.25 0.00 93 1013.8
20260905173516 21 74 8.0 14.5 0.00 0.25 0.00 93 1013.7
20260905173036 21 62 6.4 11.3 0.00 0.28 0.00 94 1013.7
20260905172516 21 53 3.2 14.5 0.00 0.28 0.00 94 1013.7
20260905172016 20 71 6.4 14.5 0.00 0.30 0.00 94 1013.7
20260905171516 20 45 4.8 11.3 0.00 0.30 0.00 94 1013.9
20260905171016 20 37 4.8 11.3 0.00 0.30 0.00 94 1013.9
20260905170516 20 35 4.8 12.9 0.00 0.33 0.00 94 1013.9
20260905170016 20 66 6.4 12.9 0.00 0.33 0.00 94 1014.0
20260905165536 20 65 6.4 14.5 0.00 0.38 0.00 94 1013.9
20260905165016 20 54 6.4 14.5 0.00 0.38 0.00 94 1013.9
20260905164516 20 49 6.4 14.5 0.00 0.38 0.00 94 1013.8
20260905164016 20 53 4.8 14.5 0.00 0.41 0.00 94 1013.8
20260905163516 20 48 4.8 9.7 0.00 0.41 0.00 94 1013.8
20260905163016 20 39 4.8 14.5 0.00 0.43 0.00 94 1013.8
20260905162516 20 38 6.4 14.5 0.00 0.43 0.00 94 1013.9
20260905162016 20 18 6.4 12.9 0.00 0.46 0.00 94 1013.9
20260905161516 20 16 6.4 14.5 0.00 0.46 0.00 94 1013.8
20260905161016 20 18 6.4 16.1 0.00 0.46 0.00 94 1013.8
20260905160516 20 19 9.7 16.1 0.00 0.48 0.00 94 1013.8
20260905160016 20 40 6.4 14.5 0.00 0.48 0.00 94 1013.7
20260905155516 20 28 8.0 14.5 0.00 0.48 0.00 94 1013.7
20260905155017 20 48 4.8 9.7 0.00 0.51 0.00 94 1013.5
20260905154536 20 34 4.8 14.5 0.00 0.51 0.00 94 1013.5
20260905154016 20 46 6.4 14.5 0.00 0.51 0.00 94 1013.5
20260905153516 20 56 4.8 16.1 0.00 0.53 0.00 94 1013.6
20260905153016 20 58 6.4 16.1 0.00 0.53 0.00 94 1013.6
20260905152515 20 63 8.0 14.5 0.00 0.53 0.00 94 1013.6
20260905152016 20 28 4.8 12.9 0.00 0.56 0.00 94 1013.5
20260905151516 20 47 4.8 11.3 0.00 0.56 0.00 94 1013.5
20260905151015 20 57 3.2 12.9 0.00 0.58 0.00 94 1013.5
20260905150516 20 60 6.4 12.9 0.00 0.58 0.00 94 1013.5
20260905150036 20 39 4.8 11.3 0.00 0.58 0.00 94 1013.6
20260905145536 20 53 4.8 14.5 0.00 0.61 0.00 94 1013.5
20260905145015 20 29 8.0 14.5 0.00 0.61 0.00 94 1013.3
20260905144515 21 39 6.4 12.9 0.00 0.61 0.00 94 1013.2
20260905144015 21 15 6.4 16.1 0.00 0.64 0.00 94 1013.1
20260905143516 21 10 9.7 16.1 0.00 0.64 0.00 94 1013.2
20260905143016 21 15 8.0 16.1 0.00 0.64 0.00 93 1013.2
20260905142516 21 6 8.0 16.1 0.00 0.64 0.00 93 1013.2
20260905142037 21 12 9.7 16.1 0.00 0.66 0.00 94 1013.2
20260905141515 21 17 8.0 16.1 0.00 0.66 0.00 94 1013.2
20260905141015 21 73 3.2 11.3 0.00 0.66 0.00 94 1013.1
20260905140536 21 101 4.8 11.3 0.00 0.69 0.00 95 1013.1
20260905140015 21 78 3.2 11.3 0.00 0.69 0.00 95 1013.1
20260905135516 21 78 4.8 9.7 0.00 0.69 0.00 95 1013.0
20260905135017 21 85 3.2 9.7 0.00 0.71 0.00 95 1012.9
20260905134515 21 70 3.2 6.4 0.00 0.71 0.00 95 1013.0
20260905134016 21 90 1.6 6.4 0.00 0.71 0.00 95 1013.0
20260905133515 21 78 3.2 11.3 0.00 0.74 0.00 96 1013.0
20260905133117 21 83 4.8 11.3 0.00 0.74 0.00 96 1012.9
20260905132515 21 81 3.2 11.3 0.00 0.74 0.00 96 1012.9
20260905132035 21 94 3.2 9.7 0.00 0.74 0.00 96 1012.8
20260905131515 21 65 3.2 9.7 0.00 0.76 0.00 96 1012.8
20260905131015 21 69 3.2 8.0 0.00 0.76 0.00 96 1012.7
20260905130515 21 58 3.2 6.4 0.00 0.76 0.00 96 1012.8
20260905130015 20 90 1.6 6.4 0.00 0.79 0.00 96 1012.8
20260905125515 20 89 1.6 6.4 0.00 0.79 0.00 96 1012.8
20260905125015 20 84 1.6 4.8 0.00 0.79 0.00 96 1012.7
20260905124515 20 107 0.0 6.4 0.00 0.81 0.00 96 1012.8
20260905124035 20 125 1.6 9.7 0.00 0.81 0.00 96 1012.6
20260905123515 20 119 4.8 9.7 0.00 0.84 0.00 96 1012.5
20260905123036 20 105 6.4 9.7 0.00 0.84 0.00 96 1012.5
20260905122538 20 101 3.2 9.7 0.00 0.84 0.00 96 1012.5
20260905122015 20 84 1.6 6.4 0.00 0.86 0.00 96 1012.5
20260905121515 20 74 1.6 4.8 0.00 0.86 0.00 96 1012.6
20260905121015 20 70 3.2 4.8 0.00 0.86 0.00 96 1012.6
20260905120516 20 70 3.2 4.8 0.00 0.89 0.00 96 1012.6
20260905120057 20 79 1.6 4.8 0.00 0.89 0.00 96 1012.5
20260905115515 20 81 1.6 4.8 0.00 0.89 0.00 96 1012.5
20260905115035 20 94 0.0 6.4 0.00 0.91 0.00 96 1012.4
20260905114536 20 95 3.2 6.4 0.00 0.91 0.00 96 1012.3
20260905114015 20 102 3.2 6.4 0.00 0.91 0.00 96 1012.3
20260905113536 20 102 1.6 4.8 0.00 0.94 0.00 96 1012.3
20260905113057 20 84 1.6 8.0 0.00 0.94 0.00 96 1012.2
20260905112515 20 73 3.2 8.0 0.00 0.94 0.00 96 1012.1
20260905112015 20 66 3.2 6.4 0.00 0.94 0.00 96 1012.1
20260905111517 20 69 3.2 8.0 0.00 0.94 0.00 96 1012.1
20260905111015 20 64 3.2 8.0 0.00 0.94 0.00 96 1012.0
20260905110516 20 69 3.2 11.3 0.00 0.94 0.00 96 1012.1
20260905110015 19 58 4.8 11.3 0.00 0.94 0.00 96 1012.0
20260905105515 19 66 6.4 11.3 0.00 0.94 0.00 96 1012.1
20260905105015 19 71 4.8 11.3 0.00 0.94 0.00 96 1012.1
20260905104515 19 65 4.8 11.3 0.00 0.94 0.00 96 1012.2
20260905104015 19 45 4.8 8.0 0.00 0.94 0.00 96 1012.2
20260905103555 19 45 3.2 8.0 0.00 0.94 0.00 95 1011.9
20260905103015 19 69 1.6 6.4 0.00 0.94 0.00 96 1011.9
20260905102535 19 56 0.0 6.4 0.00 0.94 0.00 96 1011.9
20260905102015 18 51 1.6 6.4 0.00 0.94 0.00 96 1011.9
20260905101515 18 48 3.2 9.7 0.00 0.94 0.00 95 1011.9
20260905101015 18 36 3.2 9.7 0.00 0.94 0.00 95 1011.9
20260905100515 18 35 0.0 4.8 0.00 0.94 0.00 95 1011.8
20260905100015 18 0.0 0.0 0.00 0.94 0.00 95 1011.7
20260905095515 18 0.0 0.0 0.00 0.94 0.00 95 1011.7
20260905095035 18 0.0 0.0 0.00 0.94 0.00 95 1011.7
20260905094535 18 0.0 0.0 0.00 0.94 0.00 95 1011.8
20260905094015 18 0.0 0.0 0.00 0.94 0.00 95 1011.8
20260905093515 18 0.0 0.0 0.00 0.94 0.00 95 1011.7
20260905093036 18 0.0 0.0 0.00 0.94 0.00 94 1011.7
20260905092516 18 0.0 0.0 0.00 0.94 0.00 94 1011.8
20260905092017 18 0.0 0.0 0.00 0.94 0.00 94 1011.8
20260905091517 18 0.0 0.0 0.00 0.94 0.00 94 1011.8
20260905091017 18 0.0 1.6 0.00 0.94 0.00 94 1011.7
20260905090517 19 51 0.0 4.8 0.00 0.94 0.00 94 1011.6
20260905090017 19 56 1.6 4.8 0.00 0.94 0.00 94 1011.6
20260905085517 19 78 1.6 3.2 0.00 0.94 0.00 94 1011.7
20260905085018 19 55 1.6 6.4 0.00 0.94 0.00 94 1011.7
20260905084517 19 26 3.2 6.4 0.00 0.94 0.00 94 1011.7
20260905084017 19 0.0 0.0 0.00 0.94 0.00 94 1011.6
20260905083517 19 0.0 3.2 0.00 0.94 0.00 94 1011.7
20260905083037 19 130 0.0 3.2 0.00 0.94 0.00 94 1011.8
20260905082517 19 52 0.0 3.2 0.00 0.94 0.00 94 1011.6
20260905082017 19 49 0.0 3.2 0.00 0.94 0.00 94 1011.5
20260905081537 20 0.0 4.8 0.00 0.94 0.00 94 1011.4
20260905081038 20 59 1.6 4.8 0.00 0.94 0.00 94 1011.2
20260905080518 20 81 1.6 4.8 0.00 0.94 0.00 94 1011.2
20260905080017 20 88 0.0 6.4 0.00 0.94 0.00 94 1011.2
20260905075518 20 71 3.2 8.0 0.00 0.94 0.00 94 1011.1
20260905075017 20 56 4.8 11.3 0.00 0.94 0.00 94 1011.1
20260905074515 20 66 4.8 11.3 0.00 0.94 0.00 94 1011.2
20260905074017 20 48 4.8 9.7 0.00 0.94 0.00 94 1011.0
20260905073517 20 45 3.2 9.7 0.00 0.94 0.00 93 1011.0
20260905073057 20 55 4.8 9.7 0.00 0.94 0.00 93 1010.8
20260905072538 20 68 4.8 9.7 0.00 0.94 0.00 93 1010.8
20260905072017 20 87 1.6 4.8 0.00 0.94 0.00 93 1010.5
20260905071518 20 79 1.6 6.4 0.00 0.94 0.00 93 1010.3
20260905071017 20 39 3.2 8.0 0.00 0.94 0.00 93 1010.4
20260905070518 20 30 3.2 9.7 0.00 0.94 0.00 93 1010.6
20260905070017 21 19 6.4 9.7 0.00 0.94 0.00 93 1010.7
20260905065517 21 63 3.2 6.4 0.00 0.94 0.00 92 1010.6
20260905065017 21 0.0 1.6 0.00 0.94 0.00 92 1010.8
20260905064517 21 233 0.0 11.3 0.00 0.94 0.00 92 1011.1
20260905064017 21 247 1.6 11.3 0.00 0.94 0.00 93 1011.3
20260905063537 21 219 4.8 12.9 0.00 0.94 0.00 92 1011.6
20260905063017 21 173 4.8 12.9 0.00 0.94 0.00 92 1011.6
20260905062536 21 230 4.8 12.9 0.00 0.94 0.00 92 1012.1
20260905062018 21 219 6.4 12.9 0.00 0.94 0.00 92 1012.2
20260905061516 21 217 6.4 14.5 0.00 0.94 0.00 91 1012.1
20260905061017 21 211 6.4 14.5 0.00 0.94 0.00 91 1011.8
20260905060517 21 134 3.2 9.7 0.00 0.94 0.00 90 1011.2
20260905060017 21 97 4.8 12.9 0.00 0.94 0.00 90 1010.9
20260905055536 21 113 4.8 14.5 0.00 0.94 0.00 90 1011.3
20260905055017 21 136 6.4 14.5 0.00 0.94 0.00 90 1011.6
20260905054517 21 125 3.2 8.0 0.00 0.94 0.00 89 1011.9
20260905054017 21 130 3.2 8.0 0.00 0.94 0.00 89 1012.0
20260905053517 21 161 1.6 12.9 0.00 0.94 0.00 89 1012.3
20260905053036 21 157 6.4 12.9 0.00 0.94 0.00 88 1012.2
20260905052516 21 156 3.2 9.7 0.00 0.94 0.00 88 1011.8
20260905052016 21 113 3.2 11.3 0.00 0.94 0.00 88 1011.8
20260905051518 21 93 4.8 11.3 0.00 0.94 0.00 88 1011.8
20260905051017 21 98 4.8 9.7 0.00 0.94 0.00 88 1011.9
20260905050518 21 127 4.8 9.7 0.00 0.94 0.00 88 1011.9
20260905050016 21 115 3.2 9.7 0.00 0.94 0.00 88 1011.8
20260905045518 21 96 4.8 9.7 0.00 0.94 0.00 89 1011.8
20260905045058 21 57 4.8 8.0 0.00 0.94 0.00 90 1011.7
20260905044517 21 298 1.6 17.7 0.00 0.94 0.00 90 1012.0
20260905044038 21 123 8.0 22.5 0.00 0.94 0.00 91 1012.0
20260905043516 21 119 14.5 24.1 0.00 0.94 0.00 92 1011.7
20260905043016 21 153 12.9 24.1 0.00 0.94 0.00 92 1011.8
20260905042516 21 211 8.0 16.1 0.00 0.94 0.00 93 1012.4
20260905042017 21 154 3.2 8.0 0.00 0.94 0.00 93 1012.5
20260905041536 21 147 4.8 8.0 0.00 0.94 0.00 92 1012.2
20260905041016 21 128 3.2 8.0 0.00 0.94 0.00 92 1012.1
20260905040516 21 84 1.6 8.0 0.00 0.94 0.00 92 1011.9
20260905040016 21 71 3.2 8.0 0.00 0.94 0.94 92 1011.9
20260905035517 21 84 3.2 11.3 0.00 0.94 0.94 92 1012.0
20260905035018 21 63 4.8 11.3 0.00 0.94 0.94 92 1012.0
20260905034517 21 84 4.8 11.3 0.00 0.94 0.94 92 1012.0
20260905034017 21 88 4.8 11.3 0.00 0.94 0.94 92 1012.1
20260905033517 21 114 4.8 14.5 0.00 0.94 0.94 92 1012.2
20260905033018 21 102 9.7 14.5 0.00 0.94 0.94 93 1012.3
20260905032517 21 99 3.2 9.7 0.00 0.94 0.94 93 1012.5
20260905032017 21 17 1.6 11.3 0.00 0.94 0.94 93 1012.5
20260905031517 21 89 4.8 14.5 0.00 0.94 0.94 93 1012.4
20260905031017 21 94 8.0 14.5 0.00 0.94 0.94 93 1012.5
20260905030517 21 21 4.8 8.0 0.00 0.94 0.94 93 1012.7
20260905030017 21 57 1.6 6.4 0.00 0.94 0.94 92 1012.8
20260905025518 21 104 3.2 6.4 0.00 0.94 0.94 92 1012.8
20260905025017 21 54 3.2 4.8 0.00 0.94 0.94 92 1012.9
20260905024517 22 80 1.6 4.8 0.00 0.94 0.94 93 1012.9
20260905024017 22 87 1.6 6.4 0.00 0.94 0.94 93 1012.9
20260905023517 22 67 1.6 6.4 0.00 0.94 0.94 93 1013.0
20260905023037 22 84 1.6 6.4 0.00 0.94 0.94 92 1012.9
20260905022517 22 62 1.6 6.4 0.00 0.94 0.94 92 1012.9
20260905022016 22 66 3.2 6.4 0.00 0.94 0.94 92 1012.8
20260905021517 22 78 3.2 8.0 0.00 0.94 0.94 92 1012.8
20260905021017 22 77 3.2 8.0 0.00 0.94 0.94 92 1012.7
20260905020516 22 68 1.6 6.4 0.00 0.94 0.94 92 1012.7
20260905020018 22 66 1.6 11.3 0.00 0.94 0.94 92 1012.6
20260905015516 22 72 4.8 11.3 0.00 0.94 0.94 91 1012.6
20260905015018 22 81 4.8 8.0 0.00 0.94 0.94 91 1012.5
20260905014518 22 68 3.2 8.0 0.00 0.94 0.94 91 1012.6
20260905014018 22 78 3.2 6.4 0.00 0.94 0.94 91 1012.5
20260905013518 22 84 3.2 6.4 0.00 0.94 0.94 91 1012.5
20260905013038 22 87 3.2 6.4 0.00 0.94 0.94 91 1012.5
20260905012537 22 77 3.2 11.3 0.00 0.94 0.94 91 1012.6
20260905012017 22 67 6.4 11.3 0.00 0.94 0.94 90 1012.5
20260905011517 22 71 3.2 9.7 0.00 0.94 0.94 90 1012.6
20260905011018 22 67 4.8 9.7 0.00 0.94 0.94 90 1012.5
20260905010517 22 66 4.8 9.7 0.00 0.94 0.94 90 1012.3
20260905010036 22 57 4.8 9.7 0.00 0.94 0.94 90 1012.3
20260905005518 22 63 4.8 8.0 0.00 0.94 0.94 90 1012.2
20260905005016 22 75 4.8 8.0 0.00 0.94 0.94 90 1012.1
20260905004518 22 69 3.2 8.0 0.00 0.94 0.94 89 1012.1
20260905004016 22 62 4.8 11.3 0.00 0.94 0.94 89 1012.2
20260905003518 22 84 4.8 11.3 0.00 0.94 0.94 89 1012.1
20260905003016 23 81 3.2 8.0 0.00 0.94 0.94 89 1012.2
20260905002516 23 74 4.8 8.0 0.00 0.94 0.94 89 1012.3
20260905002016 23 67 1.6 8.0 0.00 0.94 0.94 88 1012.2
20260905001517 23 63 3.2 8.0 0.00 0.94 0.94 88 1012.3
20260905001017 23 70 4.8 9.7 0.00 0.94 0.94 87 1012.3
20260905000517 23 73 4.8 9.7 0.00 0.94 0.94 87 1012.3
20260905000016 23 76 3.2 6.4 0.00 0.94 0.94 86 1012.2
20260904235536 23 78 3.2 6.4 0.00 0.94 0.94 86 1012.3
20260904235016 24 84 4.8 11.3 0.00 0.94 0.94 85 1012.1
20260904234516 24 92 4.8 11.3 0.00 0.94 0.94 85 1012.1
20260904234016 24 99 8.0 11.3 0.00 0.94 0.94 84 1012.1
20260904233538 25 99 6.4 11.3 0.00 0.94 0.94 84 1012.2
20260904233016 25 95 6.4 11.3 0.00 0.94 0.94 84 1012.2
20260904232516 25 87 4.8 11.3 0.00 0.94 0.94 83 1012.2
20260904232016 25 93 6.4 11.3 0.00 0.94 0.94 83 1012.2
20260904231516 25 82 3.2 6.4 0.00 0.94 0.94 83 1012.3
20260904231016 25 77 3.2 6.4 0.00 0.94 0.94 83 1012.3
20260904230537 25 84 3.2 8.0 0.00 0.94 0.94 83 1012.2
20260904230037 25 68 3.2 11.3 0.00 0.94 0.94 83 1012.3
20260904225516 25 74 4.8 11.3 0.00 0.94 0.94 82 1012.2
20260904225036 25 92 4.8 9.7 0.00 0.94 0.94 82 1012.2
20260904224536 25 88 3.2 9.7 0.00 0.94 0.94 82 1012.1
20260904224018 25 64 1.6 9.7 0.00 0.94 0.94 83 1012.1
20260904223516 25 59 4.8 12.9 0.00 0.94 0.94 82 1012.1
20260904223016 25 71 6.4 12.9 0.00 0.94 0.94 81 1012.0
20260904222517 25 45 6.4 14.5 0.00 0.94 0.94 82 1012.0
20260904222017 25 41 6.4 14.5 0.00 0.94 0.94 83 1011.9
20260904221516 25 43 8.0 11.3 0.00 0.94 0.94 82 1011.8
20260904221018 25 39 3.2 9.7 0.00 0.94 0.94 83 1011.8
20260904220518 25 39 4.8 9.7 0.00 0.94 0.94 82 1011.9
20260904220016 25 42 4.8 9.7 0.00 0.94 0.94 80 1011.8
20260904215516 25 69 4.8 11.3 0.00 0.94 0.94 79 1011.7
20260904215038 26 47 6.4 11.3 0.00 0.94 0.94 80 1011.6